SCP
1 1 1 1 1 0 0 0 0 0 0 0 0 0 0 0 0 0 0 0 0 0 0 0 0 0 0 0 0 0 0 0 0 0 0 0 0 0 0 0 0 0 0
1 1 1 1 1 0 0 0 0 0 0 0 0 0 0 0 0 0 0 0 0 0 0 0 0 0 0 0 0 0 0 0 0 0 0 0 0 0 0 0 0 0 0
2 2 1 1 1 1 0 0 0 0 0 0 0 0 0 0 0 0 0 0 0 0 0 0 0 0 0 0 0 0 0 0 0 0 0 0 0 0 0 0 0 0 0
2 1 1 1 1 1 0 0 0 0 0 0 0 0 0 0 0 0 0 0 0 0 0 0 0 0 0 0 0 0 0 -0 -0 -0 -0 0 0 0 0 0 0 0 0
1 1 1 1 1 1 1 0 0 0 0 0 0 0 0 0 0 0 0 0 0 0 0 0 0 0 0 0 0 -0 -0 -0 -0 -0 0 0 0 0 0 0 0 0 0
1 1 1 1 1 1 1 1 0 0 0 0 0 0 0 0 0 0 0 0 0 0 0 0 0 0 0 0 0 -0 -0 -0 -0 0 0 0 0 0 0 0 0 0 0
1 1 1 1 1 1 1 1 1 1 1 1 1 1 0 0 0 0 0 0 0 0 0 0 0 0 0 0 0 -0 -0 -0 0 0 0 0 0 0 0 0 0 0 0
1 1 1 1 1 1 1 1 1 1 1 1 1 1 0 0 0 0 0 0 0 0 0 0 0 0 0 0 0 -0 -0 -0 0 0 0 0 1 1 0 0 0 0 0
1 1 1 1 1 1 1 1 1 1 1 1 1 1 0 0 0 0 0 0 0 0 0 0 0 0 0 0 0 -0 -0 -0 0 0 0 0 1 1 0 0 0 0 0
1 1 1 1 1 1 1 1 1 1 1 1 1 0 0 0 0 0 0 0 0 0 0 0 0 0 0 0 0 0 -0 -0 0 0 0 0 1 1 0 0 0 0 0
1 1 1 1 1 1 1 1 1 0 0 0 0 0 0 0 0 0 0 0 0 0 0 0 0 0 0 0 0 0 0 0 0 0 0 0 1 1 0 0 0 0 0
1 1 0 0 0 0 0 0 0 0 0 0 0 0 0 0 0 0 0 0 0 0 0 0 0 0 0 0 0 0 0 0 0 0 0 0 1 1 0 0 0 0 0
1 1 0 0 0 0 0 0 0 0 0 0 0 0 0 0 0 0 0 0 0 0 0 0 0 0 0 0 0 0 0 0 0 0 0 1 1 1 1 0 0 0 0
1 1 0 0 0 0 1 0 0 0 0 0 0 0 0 0 0 0 0 0 0 0 0 0 0 0 0 0 0 0 0 0 0 0 0 1 1 1 1 0 0 0 0
1 1 1 1 1 1 1 1 0 0 0 0 0 0 0 0 0 0 0 0 0 0 0 0 0 0 0 0 0 0 0 0 0 0 0 1 1 1 1 1 1 0 0
1 1 1 1 1 1 1 1 1 0 0 0 1 1 0 0 0 0 1 1 1 1 1 1 1 1 1 1 0 0 0 0 0 0 0 1 1 1 1 1 1 1 0
2 2 2 1 2 2 1 1 1 1 1 1 1 1 1 1 1 1 1 1 1 1 1 1 1 1 1 1 1 1 1 1 0 0 1 1 1 1 1 1 1 1 1
3 3 2 2 2 2 2 1 1 1 1 1 1 1 1 1 1 1 1 1 1 1 1 1 1 1 1 1 1 1 1 1 1 1 1 1 1 1 1 1 1 1 1
4 4 3 2 2 2 2 1 1 1 1 1 2 2 2 1 1 2 2 2 2 2 2 2 2 2 2 1 1 1 1 1 1 1 1 1 1 1 1 1 1 1 1
5 4 4 3 3 2 2 2 2 2 2 2 2 2 2 2 2 2 2 2 2 2 2 2 2 2 1 1 1 1 1 1 1 1 1 1 1 0 0 0 0 1 0
5 5 4 3 3 2 2 2 2 2 2 2 2 2 2 2 2 2 2 2 2 2 2 2 1 1 1 1 1 1 1 0 0 0 0 0 0 0 0 0 0 0 0
5 4 3 3 3 3 2 2 2 2 2 2 2 2 2 2 2 2 2 2 2 1 1 1 1 1 1 1 1 0 0 0 0 0 0 0 0 0 0 0 0 0 0
4 3 3 3 3 3 3 3 3 3 2 2 2 2 1 1 1 1 1 1 1 1 1 1 1 1 1 1 0 0 0 0 0 0 0 0 0 0 0 0 0 0 0
3 3 3 3 3 3 3 3 3 3 2 2 1 1 1 1 1 1 1 1 1 1 1 1 0 0 0 0 0 0 0 0 0 0 0 0 0 0 0 0 0 0 0
3 3 3 3 3 3 3 3 3 2 2 1 1 1 1 1 0 0 0 0 0 0 0 0 0 0 0 0 0 0 0 0 0 0 0 0 0 0 0 0 0 0 0
3 3 3 3 3 3 3 3 2 2 1 1 1 1 1 0 0 0 0 0 0 0 0 0 0 0 0 0 0 0 0 0 0 0 0 0 0 0 0 0 0 0 0
Wind_Speed
19 19 19 19 18 18 17 16 15 15 14 13 12 11 11 12 12 12 13 12 12 12 12 11 11 11 11 12 12 13 13 13 13 15 15 14 12 11 10 10 12 13 14
22 20 19 18 18 18 17 16 15 14 13 13 12 11 11 11 11 11 12 12 12 12 11 11 10 10 10 10 10 10 10 10 10 11 13 13 11 10 9 8 11 10 13
21 19 19 18 18 18 17 16 15 14 14 13 12 11 11 11 11 11 11 11 11 11 11 10 10 10 9 9 9 8 7 6 6 7 9 9 9 10 12 14 15 13 12
20 18 17 19 18 18 17 17 16 15 15 13 12 11 11 11 10 10 10 10 10 10 10 10 10 9 8 8 7 6 4 2 2 3 3 4 8 11 12 12 12 12 11
19 17 18 19 19 18 18 17 17 16 15 14 13 12 11 11 10 10 10 10 9 9 9 9 9 8 7 6 5 3 1 1 3 5 1 6 8 11 11 11 11 10 9
19 18 17 18 19 18 18 18 17 16 15 14 13 12 11 11 10 9 9 9 9 8 8 8 7 6 6 5 3 1 2 3 6 3 1 7 9 10 11 10 10 9 9
19 18 17 17 18 18 18 17 17 16 14 13 13 12 11 10 9 9 9 9 8 8 7 7 6 5 4 3 1 2 4 6 6 3 2 7 10 11 10 10 9 9 8
20 18 16 17 18 18 18 17 16 15 14 13 12 12 11 10 9 9 9 8 8 7 7 6 5 4 3 2 1 3 6 9 6 3 4 9 12 12 11 10 9 8 7
20 18 15 15 15 17 17 16 16 14 13 13 12 11 11 10 10 9 9 8 8 7 6 6 5 4 3 2 3 5 7 8 8 2 5 8 12 12 11 10 8 8 7
19 18 15 15 14 14 14 16 16 14 13 13 12 12 11 10 9 10 9 8 8 7 6 5 5 4 4 5 5 6 7 8 7 1 4 8 13 13 11 9 8 7 7
17 16 15 16 15 14 14 14 14 14 12 12 11 11 10 8 9 9 9 11 9 7 7 6 6 6 6 8 8 9 7 5 3 3 4 11 14 13 12 10 8 7 7
18 17 16 16 16 15 13 12 10 10 10 9 8 9 7 6 6 8 12 13 10 9 8 8 9 8 8 6 9 9 5 7 3 4 6 15 15 14 12 10 9 8 7
17 16 17 16 14 13 11 10 7 7 8 8 9 9 6 5 4 6 6 7 7 9 7 8 8 7 7 5 4 6 7 4 2 4 9 15 14 14 13 11 10 9 8
17 17 16 16 13 12 11 10 8 7 7 7 7 8 6 3 3 4 4 6 6 5 5 5 5 7 5 3 3 4 4 2 2 4 8 15 14 14 14 12 11 10 9
15 15 15 14 11 7 8 8 8 6 8 7 6 6 5 4 3 3 2 2 3 3 4 4 3 2 1 2 3 3 3 2 1 4 5 12 13 13 13 13 12 11 10
14 12 12 12 12 8 6 5 5 5 5 6 6 7 6 4 3 1 1 1 1 1 0 1 1 0 0 1 2 3 3 2 1 3 5 7 10 11 12 12 12 11 10
15 11 10 12 12 9 9 7 5 4 5 4 5 6 6 4 2 2 1 1 1 1 0 1 1 1 1 2 2 2 2 2 2 2 4 4 5 7 9 9 10 10 10
16 13 11 13 13 9 7 6 4 3 4 3 4 4 5 4 3 2 1 1 1 1 0 1 0 1 1 1 1 2 1 1 1 1 1 3 3 4 6 8 9 9 9
14 13 11 10 12 11 8 6 4 3 2 3 3 3 4 4 3 2 1 0 0 0 0 1 1 0 1 1 1 1 1 1 2 1 2 2 3 3 4 6 8 8 8
13 12 10 9 10 10 7 5 3 3 3 2 2 3 3 2 1 1 0 0 1 1 1 1 1 0 0 1 2 1 1 2 2 2 2 2 2 2 3 4 4 4 6
12 11 10 9 9 8 6 6 5 4 3 3 3 4 4 3 2 2 1 1 1 1 1 1 1 0 0 1 1 1 1 1 2 2 2 2 2 2 3 3 2 2 2
9 9 9 8 9 8 6 5 4 4 4 4 4 5 5 4 3 1 2 1 1 1 1 1 1 1 0 0 1 0 1 0 1 1 2 2 2 2 2 3 3 2 2
5 5 6 6 7 7 6 5 4 4 3 3 4 4 6 7 6 6 5 4 3 2 1 1 1 1 1 0 1 0 1 1 1 1 1 1 2 2 2 2 3 2 3
7 4 5 5 5 5 6 6 6 5 4 4 5 5 7 8 7 7 6 5 5 3 2 2 3 1 1 0 1 1 1 1 0 0 0 1 1 2 2 2 3 3 4
10 7 6 6 5 4 4 5 6 5 6 6 7 8 7 7 8 8 7 7 7 6 7 7 6 5 4 3 2 1 1 1 1 0 0 1 1 1 2 2 2 2 3
13 10 9 8 8 7 7 6 7 9 9 10 9 8 7 7 8 10 10 10 9 8 8 8 8 9 7 7 5 5 3 3 2 2 1 1 1 1 0 1 1 1 1
Wind_Direction
126 131 134 136 138 138 136 134 132 130 127 124 119 112 106 100 96 94 94 94 96 97 97 94 90 84 78 75 74 76 78 81 85 89 91 92 93 95 98 109 109 98 101
127 130 132 135 139 140 138 137 136 134 131 128 125 120 114 108 103 101 100 99 99 99 99 97 95 91 86 82 79 80 81 85 93 104 110 103 96 86 76 81 99 106 107
124 130 132 135 140 141 141 139 138 137 135 133 130 125 119 115 110 107 105 104 103 103 102 102 100 96 92 88 87 89 92 97 109 131 142 120 107 89 85 89 98 106 107
128 136 134 136 140 142 142 141 141 142 141 139 134 130 125 120 115 113 110 108 107 107 107 106 103 101 97 93 91 93 99 113 157 206 204 135 118 101 97 98 102 104 107
133 132 130 138 140 142 143 144 144 146 146 143 139 135 130 125 120 118 116 114 112 112 111 108 106 105 102 98 95 95 86 323 288 270 302 100 100 112 108 107 106 106 108
133 129 134 137 140 141 144 146 148 149 149 146 143 139 134 129 125 124 122 120 118 117 115 112 109 109 109 107 103 72 316 311 295 281 256 124 115 121 117 115 113 111 111
133 130 135 136 138 141 143 146 148 150 150 148 145 141 136 132 130 129 128 127 126 124 121 118 116 113 110 111 116 293 298 300 276 274 214 120 123 129 126 123 120 118 116
131 131 133 135 138 140 143 146 148 150 150 148 146 142 139 135 135 135 135 135 135 133 131 131 131 129 129 141 225 281 292 295 292 287 134 114 133 135 132 129 127 127 124
131 134 141 140 140 141 143 145 147 149 150 148 146 144 143 143 143 144 142 142 143 143 145 150 154 157 167 195 237 268 283 292 293 297 123 122 135 135 136 137 136 134 131
135 140 148 148 144 146 146 147 148 150 150 150 149 150 151 151 154 154 155 151 153 157 163 170 178 189 203 218 234 252 271 288 273 333 103 132 142 142 144 144 144 143 142
140 145 155 153 153 155 153 149 151 153 153 153 156 159 162 176 176 175 173 153 164 173 181 190 202 212 219 224 232 242 257 258 256 98 100 146 151 148 150 153 153 154 155
148 153 161 159 161 164 155 149 159 166 163 177 172 173 194 206 191 179 150 161 173 185 195 206 218 226 232 227 221 230 243 238 221 131 154 163 156 154 156 161 163 166 169
155 162 164 162 166 165 149 156 167 174 166 196 180 179 206 217 189 148 154 165 182 195 205 204 217 230 228 228 201 205 231 239 162 136 157 163 159 158 162 168 172 176 178
162 169 165 162 167 165 154 162 168 176 167 190 174 184 198 215 221 171 175 174 187 197 205 193 219 223 236 244 244 245 257 236 132 131 159 164 164 164 168 174 179 183 184
167 170 163 162 159 156 147 164 172 175 169 183 169 187 198 195 216 216 180 171 205 186 182 203 226 223 242 299 295 294 304 340 78 124 146 168 171 170 174 179 183 186 187
165 171 161 157 153 151 148 161 160 169 161 176 162 178 196 209 196 200 181 157 290 340 104 213 245 122 297 318 309 317 322 344 69 111 143 175 177 175 176 180 183 185 187
159 164 156 154 155 156 160 174 168 176 167 163 163 171 180 207 183 164 199 163 211 255 288 37 6 11 310 285 295 310 329 349 26 60 139 160 169 176 179 179 182 186 189
157 158 160 166 159 160 162 174 169 182 160 156 151 161 173 187 171 161 205 217 199 190 147 126 7 307 313 310 323 327 347 359 6 49 122 142 152 165 172 175 179 181 186
148 152 158 160 158 166 168 171 176 162 145 138 138 148 167 178 176 170 205 190 95 110 1 268 164 228 302 301 290 282 334 18 10 12 55 83 111 141 156 164 167 169 178
143 148 156 157 155 162 166 166 175 168 143 122 111 114 124 132 132 138 166 34 4 26 8 332 8 50 345 328 304 326 11 17 12 12 18 66 79 114 130 138 155 157 159
137 146 157 166 161 162 167 173 176 175 150 117 95 83 89 92 95 104 119 70 47 25 9 350 299 224 342 342 302 309 324 5 22 18 20 35 52 56 80 99 114 123 144
127 145 161 168 164 169 167 167 164 154 136 118 95 78 73 72 62 81 84 71 67 54 4 334 281 235 243 327 272 280 269 273 320 18 18 33 40 37 55 85 85 86 100
103 139 159 160 158 165 161 153 145 135 129 118 104 81 62 61 54 43 43 43 44 51 48 9 324 254 228 129 46 147 224 232 150 102 38 46 45 38 45 67 84 87 99
67 84 100 117 134 148 156 159 162 161 149 118 101 86 72 64 61 55 50 49 49 42 36 45 48 21 58 142 96 60 83 60 127 161 129 80 75 66 55 59 72 80 79
41 63 74 82 90 110 135 148 150 132 118 108 101 93 80 67 59 54 54 54 50 45 42 44 49 45 47 46 39 31 42 42 16 73 121 47 24 39 60 67 69 80 95
37 47 63 71 69 78 87 94 111 119 117 112 105 97 83 69 60 54 55 57 55 52 49 49 53 54 52 50 45 38 34 33 21 24 30 10 357 331 341 108 119 113 105